Voltar ao catálogo

NOAA 17 DEB

AtivoPO
NORAD 48184·DEBRIS·🇺🇸 United States

Lançado Jun 24, 2002 de Vandenberg Space Force Base

Loading…

Próximas Passagens (próximas 24 horas)

TLE

AtualizadoSource: Space-Track

Época: Sep 13, 2026, 06:16 UTC

1 48184U 02032Z   26256.26176466  .00004093  00000-0  10035-2 0  9998
2 48184  98.8354 261.2521 0012968   3.3768 356.7511 14.52957406285563

Acompanhe NOAA 17 DEB em tempo real com AllMySat

Download on the App Store